[[{"header":{"parameterUnit":"m.s-1","parameterCategory":1,"la1":30.2991,"la2":30.254,"lo1":-89.0895,"lo2":-89.0444,"dy":0.0017,"dx":0.0017,"nx":28,"ny":28,"refTime":"2025-06-01T03:00:00:Z","depth":0,"parameterNumber":2,"parameterNumberName":"U-component_of_WINDS"},"data":[0,0,0,0,0,0,0,0,0,0,0,0,0,0,0,0,0,0,0,0,0,0,0,0,0,0,0,0,0,0,0,0,0,0,0,0,0,0,0,0,0,0,0,0,0,0,0,0,0,0,0,0,0,0,0,0,0,0,-4.6586,-4.6586,0,-4.658,-4.658,-4.658,-4.648,-4.6477,-4.6475,-4.6472,-4.6467,-4.6469,-4.6472,0,0,0,0,0,0,0,0,0,0,0,0,0,-4.6514,-4.6516,-4.6586,-4.6586,-4.6586,-4.658,-4.658,-4.658,-4.648,-4.6477,-4.6474,-4.6471,-4.6466,-4.6469,-4.6472,0,0,0,0,0,0,0,0,0,0,0,0,0,-4.6531,-4.6517,-4.6586,-4.6536,-4.6531,-4.658,-4.658,-4.6579,-4.6481,-4.6477,-4.6473,-4.647,-4.6466,-4.6469,-4.6472,-4.6569,0,0,-4.6482,-4.6484,0,0,0,0,0,0,0,0,-4.653,-4.6533,-4.6543,-4.6539,-4.6534,-4.6527,-4.6552,-4.6576,-4.6482,-4.65,-4.6472,-4.6468,-4.649,-4.6491,-4.6498,-4.6569,-4.6569,-4.6483,-4.6485,-4.6486,-4.6487,0,0,0,0,0,0,0,-4.6529,-4.6533,-4.6583,-4.6543,-4.6538,-4.6514,-4.6512,-4.6556,-4.6517,-4.6498,-4.6491,-4.6491,-4.6487,-4.6495,-4.6498,-4.6568,-4.6482,-4.6485,-4.6488,-4.6489,-4.672,-4.6724,0,0,0,0,0,0,-4.6535,-4.6533,-4.6584,-4.6583,-4.6523,-4.6518,-4.6516,-4.6533,-4.6516,-4.6509,-4.6495,-4.6487,-4.6492,-4.6494,-4.6497,-4.661,-4.6486,-4.6489,-4.6491,-4.6716,-4.6721,-4.6725,0,0,0,0,0,0,-4.6533,-4.654,-4.6584,-4.6556,-4.656,-4.6524,-4.6543,-4.6535,-4.6543,-4.6513,-4.6506,-4.6511,-4.6489,-4.6492,-4.6552,-4.6608,-4.6491,-4.6494,-4.6711,-4.6717,-4.6723,-4.6836,0,0,0,0,0,0,-4.6532,-4.654,-4.6576,-4.6558,-4.6562,-4.6639,-4.6547,-4.6537,-4.6549,-4.6539,-4.6526,-4.652,-4.6486,-4.6548,-4.6556,-4.6611,-4.6496,-4.6706,-4.6714,-4.6721,-4.6827,-4.6845,-4.6861,0,0,0,0,0,-4.653,-4.6608,-4.6578,-4.6585,-4.6605,-4.6642,-4.6644,-4.6603,-4.6554,-4.659,-4.6571,-4.6521,-4.6601,-4.6555,-4.6563,-4.662,-4.6702,-4.6712,-4.6721,-4.682,-4.6842,-4.6861,0,0,0,0,0,0,-4.6633,-4.6604,-4.6571,-4.6645,-4.6647,-4.6625,-4.6669,-4.6628,-4.6643,-4.6633,-4.6581,-4.6579,-4.6647,-4.664,-4.6588,-4.6714,-4.6643,-4.6654,-4.6716,-4.6737,-4.6753,-4.6753,-4.6499,0,0,0,0,0,-4.6664,-4.6696,-4.6669,-4.6738,-4.674,-4.6705,-4.6719,-4.6688,-4.6687,-4.6687,-4.6672,-4.6675,-4.67,-4.6718,-4.674,-4.6827,-4.6823,-4.687,-4.6887,-4.6901,-4.6911,-4.6957,-4.6978,-4.6756,-4.6756,-4.6756,0,0,-4.6729,-4.6718,-4.6741,-4.6758,-4.6756,-4.679,-4.6706,-4.6746,-4.6771,-4.6693,-4.6748,-4.6739,-4.6738,-4.6812,-4.6843,-4.6807,-4.6972,-4.6913,-4.6924,-4.6926,-4.6969,-4.699,-4.7009,-4.6762,-4.6761,-4.676,0,0,-4.6865,-4.686,-4.6916,-4.6916,-4.6914,-4.689,-4.6904,-4.6889,-4.688,-4.6935,-4.6877,-4.6908,-4.6953,-4.6955,-4.6962,-4.7103,-4.7057,-4.7112,-4.7199,-4.7245,-4.7263,-4.7278,-4.7328,-4.7347,-4.7122,-4.7122,-4.7122,0,-4.6947,-4.6995,-4.6951,-4.6995,-4.7005,-4.6937,-4.6995,-4.6997,-4.7002,-4.7011,-4.6971,-4.7027,-4.7022,-4.7096,-4.7131,-4.7139,-4.7153,-4.7112,-4.7264,-4.7278,-4.7292,-4.734,-4.7359,-4.7129,-4.7128,-4.7127,-4.7127,0,-4.7096,-4.7131,-4.7178,-4.7184,-4.72,-4.7251,-4.7215,-4.7236,-4.7205,-4.7186,-4.7244,-4.7236,-4.7255,-4.7271,-4.724,-4.7341,-4.7319,-4.7273,-4.72,-4.7321,-4.7364,-4.7382,-4.7138,-4.7136,-4.7134,-4.7132,0,0,-4.7294,-4.7277,-4.7295,-4.7298,-4.7292,-4.7319,-4.7368,-4.7387,-4.7407,-4.7414,-4.7454,-4.7495,-4.7452,-4.7461,-4.743,-4.747,-4.7583,-4.7418,-4.7418,-4.7449,-4.7695,-4.773,-4.7752,-4.7554,-4.7557,-4.756,-4.7695,0,-4.7425,-4.7506,-4.7469,-4.7554,-4.7587,-4.7525,-4.7568,-4.757,-4.7555,-4.7581,-4.7564,-4.7594,-4.7536,-4.754,-4.7578,-4.7561,-4.7632,-4.7551,-4.7591,-4.7593,-4.7592,-4.7774,-4.781,-4.7938,-4.7712,-4.7715,-4.7717,0,-4.7587,-4.7602,-4.7691,-4.768,-4.7693,-4.7732,-4.7748,-4.7774,-4.7775,-4.7761,-4.7773,-4.7733,-4.7782,-4.7712,-4.7779,-4.7725,-4.7739,-4.7734,-4.7738,-4.7739,-4.7661,-4.778,-4.7978,-4.7997,-4.7744,-4.7741,-4.774,0,-4.7722,-4.7764,-4.7823,-4.7828,-4.7817,-4.7846,-4.7844,-4.7841,-4.7856,-4.7871,-4.788,-4.7901,-4.7912,-4.7929,-4.7897,-4.7849,-4.7969,-4.7896,-4.7959,-4.796,-4.7985,-4.7984,-4.8189,-4.7997,-4.7997,-4.7997,-4.7996,0,-4.7872,-4.7929,-4.7884,-4.792,-4.7983,-4.7941,-4.8004,-4.7995,-4.7994,-4.8028,-4.7977,-4.801,-4.7966,-4.7996,-4.7972,-4.8031,-4.8037,-4.8027,-4.802,-4.8031,-4.8033,-4.8039,-4.8029,-4.8002,-4.8001,-4.8,-4.7999,0,-4.8032,-4.8004,-4.8064,-4.8051,-4.8049,-4.8096,-4.8084,-4.8118,-4.81,-4.8144,-4.8152,-4.8125,-4.8157,-4.8128,-4.8159,-4.8143,-4.8222,-4.8202,-4.8221,-4.8215,-4.828,-4.8274,-4.8495,-4.8522,-4.8314,-4.8316,-4.8318,0,-4.8128,-4.8171,-4.8162,-4.8181,-4.8182,-4.8213,-4.8229,-4.819,-4.8209,-4.8215,-4.8249,-4.8277,-4.8297,-4.8352,-4.8336,-4.836,-4.834,-4.8416,-4.8343,-4.8354,-4.8341,-4.8338,-4.8342,-4.843,-4.8432,-4.8434,-4.8436,0,-4.8302,-4.8287,-4.8311,-4.8331,-4.8351,-4.8365,-4.8375,-4.8394,-4.8355,-4.8378,-4.8411,-4.8427,-4.846,-4.8489,-4.8508,-4.8506,-4.8465,-4.846,-4.8475,-4.8487,-4.8496,-4.8492,-4.8261,-4.8454,-4.8452,-4.8451,-4.845,-4.8449,-4.8433,-4.8468,-4.8468,-4.8497,-4.8501,-4.8512,-4.8544,-4.8531,-4.8557,-4.8581,-4.8557,-4.8597,-4.86,-4.8622,-4.8625,-4.8657,-4.8625,-4.8648,-4.8654,-4.866,-4.8669,-4.8492,-4.8661,-4.866,-4.8659,-4.8659,-4.8659,0,-4.8604,-4.8601,-4.8629,-4.8645,-4.8668,-4.8629,-4.8639,-4.8661,-4.8697,-4.8703,-4.8725,-4.8764,-4.8792,-4.8779,-4.8805,-4.8833,-4.8815,-4.8841,-4.8838,-4.8838,-4.8696,-4.868,-4.8855,-4.8855,-4.8855,-4.8855,-4.8855,-4.8855,-4.8695,-4.8753,-4.8739,-4.88,-4.8797,-4.8836,-4.8845,-4.8856,-4.886,-4.8906,-4.893,-4.8921,-4.892,-4.8946,-4.8971,-4.8967,-4.8978,-4.9011,-4.9,-4.8867,-4.8848,-4.8829,-4.8814,-4.9014,-4.9014,-4.9139,-4.914,-4.9141]},{"header":{"parameterUnit":"m.s-1","parameterCategory":1,"la1":30.2991,"la2":30.254,"lo1":-89.0895,"lo2":-89.0444,"dy":0.0017,"dx":0.0017,"nx":28,"ny":28,"refTime":"2025-06-01T03:00:00:Z","depth":0,"parameterNumber":3,"parameterNumberName":"V-component_of_WINDS"},"data":[0,0,0,0,0,0,0,0,0,0,0,0,0,0,0,0,0,0,0,0,0,0,0,0,0,0,0,0,0,0,0,0,0,0,0,0,0,0,0,0,0,0,0,0,0,0,0,0,0,0,0,0,0,0,0,0,0,0,2.8755,2.8755,0,2.8774,2.8775,2.8775,2.8836,2.8837,2.8839,2.884,2.8854,2.8853,2.8853,0,0,0,0,0,0,0,0,0,0,0,0,0,2.8766,2.8765,2.8755,2.8755,2.8755,2.8774,2.8775,2.8775,2.8836,2.8837,2.8839,2.8841,2.8855,2.8854,2.8852,0,0,0,0,0,0,0,0,0,0,0,0,0,2.8771,2.8765,2.8755,2.8788,2.8791,2.8774,2.8775,2.8775,2.8835,2.8837,2.884,2.8841,2.8855,2.8854,2.8852,2.8803,0,0,2.8848,2.8848,0,0,0,0,0,0,0,0,2.877,2.877,2.8783,2.8786,2.8789,2.8805,2.8784,2.8784,2.8835,2.8818,2.884,2.8842,2.8836,2.8836,2.8835,2.8804,2.8804,2.8848,2.8847,2.8847,2.8846,0,0,0,0,0,0,0,2.877,2.877,2.8762,2.8783,2.8787,2.8801,2.8804,2.8784,2.8815,2.882,2.8825,2.8826,2.8838,2.8836,2.8836,2.8804,2.8848,2.8847,2.8846,2.8846,2.8734,2.8732,0,0,0,0,0,0,2.8766,2.8769,2.8762,2.8763,2.8785,2.8799,2.8802,2.8798,2.8816,2.882,2.8825,2.8829,2.8838,2.8837,2.8837,2.878,2.8847,2.8845,2.8845,2.8736,2.8734,2.8731,0,0,0,0,0,0,2.8766,2.8764,2.8761,2.8767,2.8768,2.8797,2.8791,2.8797,2.8796,2.8819,2.8824,2.8817,2.8839,2.8839,2.8812,2.8782,2.8845,2.8844,2.8739,2.8736,2.8733,2.8667,0,0,0,0,0,0,2.8766,2.8764,2.8746,2.8766,2.8767,2.8736,2.8789,2.8796,2.8794,2.88,2.8814,2.8818,2.8841,2.8813,2.881,2.8781,2.8843,2.8742,2.8737,2.8734,2.8672,2.8662,2.8653,0,0,0,0,0,2.8766,2.8725,2.8745,2.8744,2.8746,2.8734,2.8735,2.8763,2.8791,2.8773,2.8788,2.8818,2.8786,2.881,2.8807,2.8777,2.8744,2.8739,2.8734,2.8676,2.8664,2.8653,0,0,0,0,0,0,2.8698,2.8728,2.875,2.8716,2.8722,2.8745,2.8723,2.8749,2.8747,2.8752,2.8786,2.8789,2.8757,2.8764,2.8791,2.8731,2.877,2.8764,2.8726,2.8715,2.8706,2.8704,2.8841,0,0,0,0,0,2.868,2.8669,2.8696,2.8662,2.8665,2.8693,2.8689,2.8711,2.8718,2.8721,2.8734,2.8739,2.873,2.8723,2.8716,2.8674,2.8677,2.8652,2.8643,2.8635,2.8629,2.8607,2.8596,2.8716,2.8716,2.8716,0,0,2.864,2.8656,2.8646,2.8649,2.8657,2.8644,2.8695,2.8679,2.8669,2.8718,2.8693,2.8704,2.8711,2.8676,2.8661,2.8681,2.8597,2.8629,2.8622,2.8621,2.8601,2.859,2.858,2.8712,2.8713,2.8713,0,0,2.8562,2.8573,2.8547,2.8554,2.8566,2.8586,2.8579,2.8599,2.8608,2.8585,2.8621,2.861,2.8594,2.8598,2.8598,2.8524,2.855,2.8521,2.8471,2.845,2.844,2.8432,2.8405,2.8395,2.8515,2.8515,2.8515,0,2.8511,2.8494,2.8529,2.8512,2.8512,2.8558,2.8531,2.8536,2.8544,2.8542,2.8566,2.8548,2.8556,2.8523,2.8505,2.8504,2.8497,2.8518,2.8439,2.8431,2.8424,2.8399,2.8389,2.8511,2.8512,2.8512,2.8512,0,2.8431,2.8419,2.8396,2.8406,2.8404,2.8381,2.8412,2.8405,2.8428,2.8444,2.842,2.8432,2.8429,2.8423,2.8444,2.8393,2.8406,2.8433,2.8473,2.8408,2.8385,2.8376,2.8506,2.8507,2.8508,2.8509,0,0,2.8308,2.8339,2.833,2.8335,2.8353,2.8344,2.8324,2.8323,2.8316,2.8321,2.8304,2.8291,2.8318,2.8318,2.834,2.8322,2.8262,2.8352,2.8353,2.8334,2.8206,2.8184,2.8172,2.8281,2.8279,2.8278,2.8205,0,2.8233,2.8202,2.8234,2.8196,2.8185,2.823,2.8213,2.8221,2.8237,2.8229,2.8246,2.8236,2.8272,2.8273,2.8257,2.8273,2.8236,2.8278,2.8264,2.8263,2.8259,2.816,2.8137,2.8068,2.8197,2.8195,2.8194,0,2.8141,2.8144,2.8106,2.8128,2.8124,2.8108,2.8111,2.8103,2.8114,2.8127,2.8128,2.8156,2.8137,2.8178,2.8151,2.8179,2.8176,2.8183,2.8181,2.8179,2.8223,2.8155,2.8046,2.8035,2.818,2.8181,2.8182,0,2.8055,2.8049,2.8026,2.8029,2.8054,2.8041,2.8051,2.8064,2.8062,2.8064,2.8063,2.8061,2.806,2.8058,2.8085,2.8112,2.8055,2.8098,2.8064,2.8063,2.8048,2.8048,2.7936,2.8048,2.8048,2.8048,2.8049,0,2.7967,2.7942,2.7987,2.7972,2.7945,2.7982,2.7954,2.7968,2.7979,2.7967,2.8006,2.7993,2.8031,2.8022,2.8043,2.8018,2.8017,2.8026,2.8031,2.8021,2.802,2.8018,2.8023,2.8046,2.8046,2.8047,2.8047,0,2.7865,2.7895,2.7872,2.7899,2.7905,2.7883,2.7905,2.7892,2.7912,2.7896,2.7895,2.7924,2.7916,2.7944,2.7939,2.7954,2.7917,2.7931,2.7913,2.7917,2.7882,2.7884,2.7763,2.7749,2.787,2.7869,2.7868,0,2.7806,2.7788,2.7814,2.781,2.7818,2.781,2.7809,2.7845,2.7842,2.7854,2.7839,2.7835,2.7833,2.7818,2.7838,2.7836,2.7849,2.7807,2.7849,2.784,2.7847,2.7848,2.7846,2.7797,2.7796,2.7795,2.7794,0,2.7699,2.7716,2.7713,2.7717,2.7715,2.7719,2.7725,2.7719,2.7758,2.7752,2.7746,2.7745,2.7742,2.7737,2.7739,2.7747,2.7776,2.7781,2.7773,2.7762,2.7752,2.7756,2.7889,2.7783,2.7784,2.7785,2.7786,2.7786,2.7617,2.7603,2.7619,2.7616,2.7625,2.763,2.762,2.7639,2.7635,2.7637,2.7658,2.7647,2.7659,2.7666,2.7671,2.7663,2.7682,2.767,2.7667,2.7664,2.7657,2.7755,2.7663,2.7664,2.7664,2.7664,2.7665,0,2.7511,2.7524,2.7521,2.753,2.7527,2.7558,2.7567,2.7562,2.7553,2.7562,2.7561,2.7554,2.755,2.7571,2.7569,2.7558,2.7571,2.7556,2.7557,2.7558,2.764,2.7647,2.7546,2.7546,2.7546,2.7546,2.7546,2.7546,2.7456,2.7434,2.7452,2.7436,2.7449,2.7441,2.7443,2.7448,2.7456,2.7447,2.7445,2.7459,2.7474,2.7474,2.7471,2.7478,2.7475,2.7455,2.7465,2.7541,2.7552,2.7563,2.757,2.7454,2.7454,2.7384,2.7383,2.7383]}]]